Wind_Speed
37 39 35 31 35 36 36 37 35 28 32 36 36 35 34 33 31 28 25 19 17 17 20 23 22 22 24 25 27 29 28 27 26 26 27 29 28 26 26 26 26 27 29 32
38 37 30 33 38 38 39 40 37 30 35 39 38 38 37 34 29 24 21 21 17 18 22 25 23 25 26 28 30 33 35 33 32 32 32 32 32 31 30 31 31 32 33 35
35 33 33 37 40 41 41 39 35 32 37 41 41 40 39 37 35 31 26 20 16 20 24 27 28 29 31 32 34 37 38 37 37 38 39 38 38 38 36 36 35 36 39 43
35 29 32 36 39 41 39 35 33 33 37 41 44 46 43 43 39 33 23 18 18 22 27 30 32 33 34 35 37 39 40 40 41 41 42 42 43 44 40 41 41 42 47 51
32 27 32 35 35 37 35 32 35 36 40 44 44 48 47 45 40 31 22 21 24 29 32 34 34 36 37 37 41 42 43 43 43 43 42 41 41 41 41 43 45 48 54 58
35 30 32 35 34 35 35 33 37 39 41 46 42 45 46 43 36 31 28 28 29 32 34 35 36 38 39 40 41 43 45 44 45 45 44 42 41 42 45 46 51 57 61 62
31 30 30 33 33 33 36 35 36 38 40 42 39 43 43 39 36 34 33 34 36 37 38 39 40 41 41 42 43 45 47 46 49 45 44 45 43 43 45 50 57 63 65 64
31 30 27 27 28 27 32 34 34 36 37 39 38 39 37 38 38 38 39 39 40 41 43 44 43 43 44 45 49 44 45 49 53 45 48 51 45 41 46 52 60 66 66 59
33 33 28 26 25 26 28 32 33 35 37 40 38 37 33 31 30 32 34 35 37 39 39 36 36 39 44 46 47 47 49 52 54 53 55 52 42 41 50 56 60 63 61 56
32 31 26 25 26 27 29 31 35 37 38 40 38 34 30 26 26 26 26 28 32 36 35 34 37 41 45 48 51 52 54 59 59 53 47 39 39 46 53 55 56 56 53 52
32 31 25 27 24 22 25 30 33 36 40 41 41 36 34 29 28 27 26 27 29 31 35 36 38 42 46 47 51 54 53 59 57 48 34 32 41 50 52 52 52 51 49 49
35 34 30 29 29 25 24 29 33 37 39 41 41 39 38 36 34 34 32 31 30 33 36 38 40 43 47 49 50 57 54 48 46 44 43 52 56 50 49 51 51 49 49 49
39 38 36 34 33 32 32 34 36 39 40 40 42 42 40 38 36 36 37 35 36 38 41 42 43 45 47 45 50 52 41 44 48 48 52 53 48 50 53 51 47 46 48 45
41 39 37 34 33 33 34 37 40 40 40 42 44 44 43 40 39 38 37 37 39 39 40 42 47 48 44 41 47 42 40 47 47 48 49 50 50 52 50 48 47 47 43 42
46 42 40 39 39 38 36 36 37 39 40 41 42 43 44 44 44 43 42 42 43 42 40 42 45 45 42 45 45 39 51 51 46 45 43 46 48 48 47 47 46 43 42 44
52 53 50 45 44 44 43 40 39 39 41 42 45 45 39 42 43 44 47 47 44 45 45 46 45 43 47 48 47 55 51 43 38 42 43 44 43 44 43 43 42 43 44 46
52 56 58 56 53 52 49 46 46 47 47 49 49 47 46 48 48 49 51 48 47 49 52 54 55 54 53 56 60 56 44 42 44 43 43 44 42 39 39 40 41 44 46 49
45 52 58 60 61 61 56 53 52 53 53 57 57 55 54 54 54 54 55 55 56 56 58 61 60 57 56 55 51 43 44 46 43 43 43 41 39 39 39 41 43 46 49 51
40 42 48 54 58 59 57 56 55 56 56 54 54 54 55 56 57 59 59 59 60 61 61 57 54 48 46 44 39 40 41 39 40 41 41 40 39 40 40 43 46 48 49 50
40 42 44 46 50 52 52 51 52 53 52 48 48 48 50 52 54 53 53 55 54 53 51 51 48 37 41 37 35 35 36 37 38 39 38 38 38 39 41 44 46 47 48 49
36 39 41 44 47 50 49 49 49 48 45 45 45 47 48 49 48 47 47 47 45 44 41 36 41 37 33 29 29 31 34 36 36 35 36 36 37 39 42 43 45 47 47 46
31 33 35 37 40 42 43 44 44 41 38 36 37 39 41 42 40 39 38 34 34 33 29 24 25 23 25 26 27 30 32 33 32 33 35 36 38 41 43 44 45 44 43 43
29 31 32 34 33 35 36 36 35 33 31 29 30 31 34 35 35 35 31 25 25 21 21 19 18 20 22 23 26 28 29 30 29 32 34 37 40 42 43 43 42 40 40 41
33 34 34 33 31 32 32 31 31 30 28 27 26 26 29 29 29 28 28 26 24 26 21 19 19 19 20 22 25 26 26 25 28 32 36 39 41 42 41 40 38 37 39 41
33 36 35 29 27 27 27 28 28 26 23 22 22 23 25 22 22 20 15 14 17 18 16 17 17 18 21 22 21 21 22 25 29 33 37 39 40 40 38 37 36 38 38 38
24 26 26 24 26 23 23 22 20 19 18 16 16 23 20 17 17 17 16 15 13 12 12 13 16 18 17 15 17 19 22 26 31 35 36 37 37 37 36 37 38 37 36 34
Wind_Direction
246 246 246 246 245 244 246 249 248 244 245 248 248 249 255 257 263 271 276 270 275 284 295 301 305 314 322 321 325 327 327 322 320 320 326 330 331 329 323 317 314 312 310 309
246 248 246 244 245 244 245 248 250 246 249 249 247 248 253 260 265 267 265 260 257 274 289 296 305 315 313 316 319 319 320 318 315 315 318 323 328 329 328 323 319 319 317 315
249 245 239 238 241 244 246 249 250 247 246 248 249 250 250 255 258 262 263 262 261 272 285 290 299 307 308 310 311 311 312 312 314 314 316 320 326 327 324 324 324 325 323 319
249 247 246 244 243 246 248 250 247 242 240 244 248 251 251 255 260 262 261 266 269 272 276 282 291 299 302 303 303 302 305 308 310 313 314 317 320 323 323 322 322 322 323 320
250 248 248 246 245 248 249 246 246 241 239 243 245 253 256 255 256 258 258 261 263 265 272 280 285 289 293 296 297 295 296 299 303 306 309 313 317 320 321 321 318 314 316 319
248 247 249 251 248 246 246 241 244 245 246 249 250 253 256 256 258 259 255 255 259 266 273 278 281 283 288 294 292 289 288 290 294 297 301 306 312 316 317 317 315 314 314 316
253 250 253 255 252 249 248 245 244 248 252 255 255 253 255 253 253 260 265 265 263 264 268 273 279 283 289 288 282 280 281 283 287 291 296 302 306 310 310 313 315 315 314 314
243 239 246 257 259 254 250 245 243 249 255 257 256 257 259 255 255 262 267 270 266 266 267 271 278 282 283 279 277 276 287 289 289 290 293 294 300 306 307 310 313 314 312 312
248 244 238 242 248 246 244 242 243 248 255 257 257 259 263 263 265 270 271 271 266 268 273 275 277 280 282 280 286 293 294 288 287 289 292 292 295 304 308 310 311 311 310 310
257 250 233 228 234 239 243 240 239 244 255 262 263 264 267 268 271 273 271 269 268 268 269 269 271 277 280 285 289 293 293 291 288 289 292 300 303 306 309 310 311 309 309 310
256 252 226 215 222 235 243 245 243 243 249 259 264 267 269 271 276 280 276 273 274 271 269 274 280 284 284 284 285 290 296 302 289 280 289 303 307 310 310 308 308 310 311 313
250 250 244 231 231 234 242 246 244 245 250 254 261 267 270 272 275 279 282 278 276 281 281 283 286 287 284 285 290 295 302 298 299 304 316 323 321 312 309 310 311 313 312 310
251 251 251 248 244 238 238 241 241 243 250 257 260 264 271 272 277 281 279 277 276 282 286 286 287 290 286 287 293 298 301 305 316 317 313 316 311 307 310 312 313 313 310 309
248 252 253 252 250 247 245 245 245 246 250 256 263 270 273 274 280 284 283 281 283 290 291 285 284 284 285 299 307 309 320 326 322 318 314 311 311 313 314 315 314 312 310 309
242 247 251 253 252 252 251 250 249 251 253 258 263 267 270 273 278 282 281 282 284 287 287 286 287 290 294 304 309 305 322 322 321 317 311 310 312 314 314 314 312 310 311 312
240 243 246 249 252 251 251 253 254 257 259 261 263 264 266 270 274 277 279 279 281 282 283 288 292 294 297 301 302 310 316 315 316 315 312 310 313 313 313 311 311 312 314 316
244 244 246 248 250 252 252 255 258 260 265 268 267 267 264 266 275 278 282 285 282 282 284 289 293 298 298 299 305 311 312 312 314 315 316 317 316 313 311 310 313 315 317 317
254 249 248 251 252 255 258 257 258 260 264 269 268 267 267 269 273 277 279 281 283 285 288 291 294 296 298 302 305 304 304 307 312 318 322 321 317 314 314 315 318 319 320 319
260 257 254 253 256 259 260 261 260 260 261 263 265 267 269 271 273 274 277 279 281 283 287 290 293 293 297 302 304 303 303 307 315 321 321 318 316 317 318 320 321 320 320 318
258 258 259 259 259 261 262 262 263 264 265 265 266 267 267 269 271 273 275 276 278 282 285 287 283 273 292 293 298 300 304 311 317 318 315 314 316 317 320 322 321 320 318 317
261 260 260 260 261 262 263 265 265 265 267 266 266 266 267 267 270 272 273 275 279 282 280 263 265 274 281 285 292 299 306 313 315 313 312 312 315 319 322 323 321 320 319 321
266 264 262 261 261 262 263 265 267 269 269 268 267 265 265 265 267 269 272 277 280 264 260 260 266 274 282 289 298 305 311 311 310 309 309 313 319 323 325 323 322 321 324 328
268 267 266 264 264 264 264 265 266 269 271 269 264 263 264 264 264 263 267 271 263 270 289 287 282 280 286 301 309 311 309 308 308 308 312 319 323 326 325 324 323 326 329 331
272 271 267 264 264 263 265 267 269 272 271 265 265 267 266 264 263 265 271 274 276 280 286 282 282 289 305 313 311 308 307 308 308 313 319 323 327 327 325 324 327 332 333 333
272 266 263 261 253 252 261 265 267 270 266 260 262 265 261 261 261 262 263 254 254 260 263 275 292 308 311 308 307 307 307 310 317 321 324 328 328 327 327 330 334 336 334 334
275 274 269 253 242 248 262 262 257 255 251 249 244 238 244 250 249 245 238 231 247 266 278 297 306 305 306 312 310 310 314 323 325 326 330 329 328 329 331 334 335 335 336 337
Height
5827 5829 5834 5839 5838 5839 5840 5841 5844 5851 5849 5846 5846 5847 5848 5849 5850 5851 5851 5852 5854 5854 5852 5851 5849 5850 5849 5848 5846 5844 5844 5844 5842 5839 5835 5832 5828 5824 5820 5817 5814 5810 5807 5804
5819 5823 5830 5829 5828 5831 5833 5834 5838 5845 5842 5838 5839 5840 5841 5843 5845 5846 5846 5845 5846 5847 5846 5845 5845 5845 5843 5842 5840 5839 5838 5836 5834 5832 5828 5825 5821 5816 5813 5810 5806 5801 5798 5794
5811 5817 5818 5819 5820 5822 5825 5828 5833 5837 5834 5830 5832 5832 5834 5837 5839 5840 5840 5840 5840 5841 5840 5839 5838 5838 5838 5835 5833 5832 5829 5826 5822 5819 5816 5813 5810 5807 5803 5799 5795 5790 5786 5781
5802 5809 5810 5811 5813 5814 5818 5822 5825 5828 5827 5824 5825 5823 5827 5829 5832 5833 5834 5834 5835 5835 5835 5833 5832 5831 5830 5828 5825 5822 5818 5815 5813 5810 5806 5802 5800 5797 5793 5789 5784 5779 5774 5769
5798 5802 5801 5802 5806 5809 5812 5815 5815 5817 5818 5816 5817 5815 5819 5822 5824 5826 5827 5828 5830 5830 5828 5827 5825 5824 5823 5822 5819 5814 5811 5808 5805 5802 5799 5795 5792 5789 5783 5778 5773 5768 5762 5757
5791 5795 5795 5796 5799 5801 5802 5806 5806 5807 5808 5807 5812 5811 5809 5813 5817 5818 5820 5821 5822 5822 5820 5818 5817 5816 5816 5815 5812 5808 5804 5800 5798 5795 5792 5787 5782 5778 5773 5768 5763 5756 5749 5742
5787 5789 5789 5790 5792 5795 5796 5799 5800 5799 5800 5801 5806 5803 5804 5808 5811 5812 5812 5813 5814 5814 5812 5811 5810 5808 5808 5806 5802 5798 5794 5790 5787 5784 5781 5777 5773 5768 5762 5757 5751 5744 5736 5728
5777 5781 5784 5785 5787 5790 5790 5791 5793 5794 5794 5796 5797 5796 5800 5803 5805 5806 5806 5805 5805 5805 5804 5803 5802 5800 5799 5795 5790 5788 5786 5782 5778 5775 5772 5768 5763 5758 5752 5745 5739 5732 5725 5716
5770 5774 5780 5779 5780 5783 5783 5784 5788 5789 5787 5787 5790 5792 5796 5799 5800 5800 5799 5797 5796 5797 5796 5794 5793 5791 5789 5785 5782 5780 5776 5772 5768 5766 5762 5758 5752 5747 5742 5733 5726 5720 5713 5706
5764 5768 5774 5775 5775 5776 5778 5780 5782 5783 5782 5780 5782 5786 5790 5794 5794 5792 5790 5789 5788 5788 5787 5786 5785 5783 5781 5779 5775 5771 5767 5764 5760 5756 5752 5747 5744 5739 5731 5722 5715 5710 5704 5696
5758 5762 5768 5769 5769 5772 5773 5774 5776 5778 5778 5775 5774 5781 5783 5785 5786 5785 5784 5783 5782 5781 5780 5780 5779 5777 5775 5773 5770 5763 5759 5755 5750 5745 5740 5737 5735 5730 5721 5711 5704 5698 5691 5684
5752 5755 5760 5765 5766 5767 5768 5768 5769 5771 5770 5770 5770 5775 5774 5776 5778 5778 5778 5777 5776 5775 5773 5773 5771 5769 5766 5763 5760 5755 5750 5746 5743 5738 5733 5729 5724 5717 5708 5698 5692 5686 5679 5671
5744 5748 5752 5756 5760 5761 5760 5760 5761 5763 5764 5764 5765 5768 5768 5768 5770 5771 5770 5770 5769 5768 5767 5765 5762 5758 5756 5753 5750 5745 5741 5737 5732 5727 5721 5716 5710 5703 5694 5686 5679 5672 5666 5657
5738 5740 5744 5747 5749 5750 5751 5751 5752 5755 5756 5756 5758 5760 5761 5762 5762 5763 5763 5762 5760 5760 5758 5754 5752 5749 5747 5743 5739 5734 5731 5727 5723 5718 5711 5704 5697 5690 5682 5675 5668 5661 5653 5646
5731 5732 5733 5736 5739 5742 5743 5743 5744 5746 5747 5749 5750 5752 5754 5756 5756 5755 5755 5754 5753 5752 5749 5745 5743 5741 5738 5734 5728 5724 5721 5717 5711 5706 5697 5691 5683 5678 5671 5664 5658 5652 5643 5637
5721 5722 5724 5726 5727 5730 5733 5736 5737 5738 5739 5741 5742 5744 5746 5745 5747 5748 5747 5746 5745 5743 5739 5735 5734 5732 5728 5725 5721 5717 5712 5706 5700 5694 5686 5679 5672 5666 5660 5655 5649 5642 5633 5625
5709 5711 5713 5715 5718 5719 5723 5729 5730 5732 5732 5731 5732 5735 5736 5736 5736 5737 5737 5736 5735 5731 5728 5726 5723 5722 5719 5716 5712 5706 5700 5695 5690 5683 5676 5671 5664 5658 5653 5646 5638 5631 5623 5615
5698 5699 5701 5702 5705 5707 5716 5719 5720 5720 5720 5719 5720 5723 5725 5727 5726 5725 5725 5725 5722 5720 5716 5713 5713 5711 5709 5705 5701 5695 5691 5686 5680 5674 5668 5661 5656 5650 5644 5637 5629 5621 5613 5604
5687 5689 5690 5692 5692 5695 5703 5704 5704 5706 5707 5707 5708 5711 5712 5712 5712 5713 5713 5712 5710 5708 5705 5704 5703 5701 5698 5694 5690 5687 5683 5677 5672 5665 5659 5655 5650 5643 5636 5628 5621 5613 5604 5594
5678 5679 5680 5680 5680 5683 5689 5690 5690 5692 5694 5696 5697 5698 5699 5699 5701 5702 5702 5700 5699 5699 5698 5696 5694 5689 5689 5686 5683 5679 5675 5670 5665 5659 5654 5649 5642 5636 5628 5621 5613 5604 5595 5586
5668 5669 5670 5669 5670 5672 5675 5675 5676 5681 5682 5682 5683 5685 5687 5687 5689 5690 5690 5690 5690 5691 5691 5685 5682 5684 5682 5679 5676 5673 5669 5664 5659 5654 5649 5643 5636 5628 5620 5612 5604 5595 5586 5577
5660 5660 5660 5660 5661 5663 5663 5663 5664 5667 5669 5671 5671 5673 5675 5676 5678 5679 5680 5681 5682 5682 5683 5678 5678 5678 5677 5674 5670 5666 5662 5658 5653 5648 5642 5635 5628 5620 5611 5603 5595 5587 5578 5569
5651 5651 5650 5650 5653 5653 5652 5653 5655 5658 5659 5661 5661 5663 5664 5666 5668 5669 5671 5675 5677 5674 5675 5673 5673 5673 5670 5666 5663 5659 5656 5652 5647 5641 5634 5627 5619 5611 5603 5595 5588 5580 5571 5562
5641 5640 5640 5641 5643 5643 5644 5645 5646 5648 5651 5652 5654 5655 5656 5657 5659 5662 5665 5668 5669 5670 5669 5670 5670 5667 5662 5658 5657 5654 5650 5645 5641 5634 5627 5620 5611 5604 5597 5590 5582 5573 5564 5555
5630 5628 5629 5632 5635 5635 5636 5637 5638 5640 5642 5645 5647 5648 5647 5651 5653 5656 5659 5661 5663 5664 5665 5666 5664 5659 5656 5655 5653 5648 5644 5641 5634 5628 5621 5613 5605 5598 5591 5583 5574 5566 5558 5550
5620 5620 5621 5623 5625 5628 5629 5629 5631 5633 5636 5639 5641 5641 5643 5646 5648 5652 5655 5656 5659 5661 5661 5659 5658 5656 5654 5651 5647 5644 5641 5634 5629 5622 5615 5607 5600 5593 5585 5576 5568 5560 5553 5544